Tracking 29892 objects as of 21-Nov-2024
HD Live streaming from Space Station
objects crossing your sky now

METEOR 2-11 DEB

Track METEOR 2-11 DEB now!
10-day predictions


NORAD ID: 40708
Int'l Code: 1984-072K
Perigee: 900.1 km
Apogee: 936.1 km
Inclination: 82.5 °
Period: 103.2 minutes
Semi major axis: 7289 km
RCS: Unknown
Launch date: July 5, 1984
Source: Commonwealth of Independent States (former USSR) (CIS)
Launch site: PLESETSK MISSILE AND SPACE COMPLEX (PKMTR)

Note: This is SATELLITE DEBRIS
Your satellite tracking list
Your tracking list is empty




NASA's NSSDC Master Catalog

Two Line Element Set (TLE):
1 40708U 84072K   24320.70753527  .00006805  00000-0  50274-2 0  9996
2 40708  82.5149 116.7531 0024649 160.2383 199.9744 13.95059239493276
Source of the keplerian elements: AFSPC